TimeCET,TemperatureF,Dew PointF,Humidity,Sea Level PressureIn,VisibilityMPH,Wind Direction,Wind SpeedMPH,Gust SpeedMPH,PrecipitationIn,Events,Conditions,WindDirDegrees,DateUTC
12:20 AM,57.2,53.6,88,29.80,6.2,South,10.4,-,N/A,,Mostly Cloudy,190,2013-02-01 23:20:00
12:50 AM,55.4,53.6,94,29.77,6.2,SSW,8.1,-,N/A,,Mostly Cloudy,200,2013-02-01 23:50:00
1:20 AM,57.2,53.6,88,29.77,6.2,SSW,11.5,-,N/A,,Mostly Cloudy,200,2013-02-02 00:20:00
1:50 AM,57.2,53.6,88,29.74,6.2,South,10.4,-,N/A,,Mostly Cloudy,190,2013-02-02 00:50:00
2:20 AM,55.4,53.6,94,29.71,6.2,South,12.7,-,N/A,,Mostly Cloudy,190,2013-02-02 01:20:00
2:50 AM,57.2,53.6,88,29.71,6.2,South,13.8,-,N/A,,Mostly Cloudy,190,2013-02-02 01:50:00
3:20 AM,57.2,53.6,88,29.68,6.2,South,13.8,-,N/A,,Mostly Cloudy,190,2013-02-02 02:20:00
3:50 AM,57.2,53.6,88,29.68,6.2,South,11.5,-,N/A,,Mostly Cloudy,190,2013-02-02 02:50:00
4:20 AM,57.2,53.6,88,29.65,6.2,South,12.7,-,N/A,,Mostly Cloudy,180,2013-02-02 03:20:00
4:50 AM,57.2,53.6,88,29.65,5.6,South,10.4,-,N/A,,Mostly Cloudy,180,2013-02-02 03:50:00
5:20 AM,57.2,53.6,88,29.62,5.6,South,10.4,-,N/A,,Mostly Cloudy,190,2013-02-02 04:20:00
5:50 AM,57.2,53.6,88,29.62,5.6,SSW,8.1,-,N/A,,Mostly Cloudy,200,2013-02-02 04:50:00
6:20 AM,57.2,51.8,82,29.59,6.2,South,10.4,-,N/A,,Mostly Cloudy,190,2013-02-02 05:20:00
6:50 AM,57.2,51.8,82,29.59,6.2,South,11.5,-,N/A,,Mostly Cloudy,180,2013-02-02 05:50:00
7:20 AM,57.2,51.8,82,29.59,6.2,South,13.8,-,N/A,,Mostly Cloudy,180,2013-02-02 06:20:00
7:50 AM,57.2,51.8,82,29.59,6.2,South,12.7,24.2,N/A,,Mostly Cloudy,190,2013-02-02 06:50:00
8:20 AM,57.2,51.8,82,29.56,6.2,South,11.5,24.2,N/A,,Mostly Cloudy,180,2013-02-02 07:20:00
8:50 AM,59.0,51.8,77,29.56,6.2,South,9.2,-,N/A,,Mostly Cloudy,190,2013-02-02 07:50:00
9:20 AM,59.0,51.8,77,29.56,6.2,South,13.8,-,N/A,,Mostly Cloudy,180,2013-02-02 08:20:00
9:50 AM,59.0,51.8,77,29.56,6.2,South,8.1,-,N/A,,Mostly Cloudy,170,2013-02-02 08:50:00
10:20 AM,60.8,51.8,72,29.53,6.2,South,11.5,-,N/A,,Scattered Clouds,180,2013-02-02 09:20:00
10:50 AM,-9999,-9999,N/A,-9999,6.2,South,10.4,-,N/A,,Unknown,180,2013-02-02 09:50:00
11:20 AM,62.6,51.8,68,29.50,6.2,South,12.7,-,N/A,,Partly Cloudy,180,2013-02-02 10:20:00
11:50 AM,60.8,50.0,68,29.50,6.2,South,10.4,-,N/A,,Scattered Clouds,190,2013-02-02 10:50:00
12:20 PM,60.8,50.0,68,29.47,6.2,South,16.1,28.8,N/A,,Scattered Clouds,180,2013-02-02 11:20:00
12:50 PM,60.8,50.0,68,29.44,6.2,South,19.6,31.1,N/A,,Scattered Clouds,180,2013-02-02 11:50:00
1:20 PM,60.8,51.8,72,29.44,6.2,South,18.4,32.2,N/A,,Scattered Clouds,190,2013-02-02 12:20:00
1:50 PM,60.8,51.8,72,29.42,6.2,South,18.4,33.4,N/A,,Scattered Clouds,190,2013-02-02 12:50:00
2:20 PM,60.8,51.8,72,29.42,6.2,South,18.4,29.9,N/A,,Scattered Clouds,180,2013-02-02 13:20:00
2:50 PM,59.0,51.8,77,29.42,6.2,South,17.3,29.9,N/A,,Mostly Cloudy,190,2013-02-02 13:50:00
3:20 PM,59.0,51.8,77,29.39,6.2,South,18.4,31.1,N/A,,Mostly Cloudy,180,2013-02-02 14:20:00
3:50 PM,59.0,51.8,77,29.39,6.2,South,18.4,33.4,N/A,,Mostly Cloudy,180,2013-02-02 14:50:00
4:20 PM,59.0,53.6,82,29.36,5.0,SSW,13.8,27.6,N/A,,Mostly Cloudy,200,2013-02-02 15:20:00
4:50 PM,59.0,53.6,82,29.36,5.0,SSW,17.3,29.9,N/A,,Mostly Cloudy,200,2013-02-02 15:50:00
5:20 PM,59.0,55.4,88,29.33,3.1,South,16.1,27.6,N/A,Rain,Rain,190,2013-02-02 16:20:00
5:50 PM,57.2,55.4,94,29.33,3.7,SSW,16.1,28.8,N/A,Rain,Light Rain,200,2013-02-02 16:50:00
6:20 PM,57.2,53.6,88,29.33,3.7,SSW,16.1,-,N/A,Rain,Light Rain,200,2013-02-02 17:20:00
6:50 PM,59.0,53.6,82,29.33,3.1,SSW,16.1,27.6,N/A,,Overcast,200,2013-02-02 17:50:00
7:20 PM,57.2,53.6,88,29.33,3.1,SSW,16.1,32.2,N/A,,Overcast,200,2013-02-02 18:20:00
7:50 PM,57.2,53.6,88,29.33,3.1,SSW,16.1,32.2,N/A,,Overcast,210,2013-02-02 18:50:00
8:20 PM,57.2,53.6,88,29.30,3.1,SSW,13.8,26.5,N/A,Thunderstorm,Thunderstorm,210,2013-02-02 19:20:00
8:50 PM,55.4,50.0,82,29.33,2.5,SW,21.9,-,N/A,Rain-Thunderstorm,Thunderstorms and Rain,230,2013-02-02 19:50:00
9:20 PM,53.6,50.0,88,29.36,3.1,West,17.3,-,N/A,,Drizzle,270,2013-02-02 20:20:00
9:50 PM,51.8,48.2,88,29.39,2.5,West,23.0,35.7,N/A,Rain,Rain,280,2013-02-02 20:50:00
10:20 PM,50.0,44.6,82,29.39,3.1,West,23.0,39.1,N/A,Rain,Light Rain,280,2013-02-02 21:20:00
10:50 PM,50.0,46.4,87,29.42,3.7,West,12.7,-,N/A,Rain,Light Rain,270,2013-02-02 21:50:00
11:20 PM,50.0,44.6,82,29.44,5.0,WSW,8.1,-,N/A,Rain,Light Rain,240,2013-02-02 22:20:00
11:50 PM,50.0,42.8,76,29.44,6.2,SW,3.5,-,N/A,,Scattered Clouds,230,2013-02-02 22:50:00